User: anonymous   Login
Location: Laguna de la Cañada del Gallo
(40.3974°N, 5.2096°W)
Time: 02:07:54
(UTC+00:00)
Language:

CZ-4C R/B - Orbit

View from above orbital plane
View from above orbital plane
View from above satellite
View from above satellite

Ground track
Ground track

The orbit data is extracted from the following two-line orbital elements,

1 36416U 10009D   24167.54239445  .00000474  00000-0  15647-3 0  9997
2 36416  63.3999 229.0895 0635241 358.9139   1.0480 13.70789304714192
Epoch (UTC): 15 June 2024 13:01:02
Eccentricity: 0.0635241
inclination: 63.3999°
perigee height: 528 km
apogee height: 1465 km
right ascension of ascending node: 229.0895°
argument of perigee: 358.9139°
revolutions per day: 13.70789304
mean anomaly at epoch: 1.0480°
orbit number at epoch: 71419

The dashed part of the orbit path shows where the satellite is in the earth's shadow,  

DLR